| time (UTC) | temp C | wind direction | speed KPH | gust KPH | rain 1hr cm | rain 24hr cm | rain mn cm | humidity % | barometer mb |
| 20260503211254 | 16 | 73 | 0.0 | 6.4 | 0.00 | 0.00 | 0.00 | 68 | 1012.9 |
| 20260503210254 | 16 | 176 | 0.0 | 6.4 | 0.00 | 0.00 | 0.00 | 68 | 1013.0 |
| 20260503205251 | 16 | 67 | 0.0 | 4.8 | 0.00 | 0.00 | 0.00 | 69 | 1012.9 |
| 20260503204253 | 16 | 53 | 0.0 | 1.6 | 0.00 | 0.00 | 0.00 | 70 | 1013.0 |
| 20260503203250 | 16 | 72 | 0.0 | 8.0 | 0.00 | 0.00 | 0.00 | 67 | 1013.1 |
| 20260503202254 | 16 | 52 | 0.0 | 4.8 | 0.00 | 0.00 | 0.00 | 66 | 1013.1 |
| 20260503201250 | 16 | 90 | 0.0 | 4.8 | 0.00 | 0.00 | 0.00 | 65 | 1013.1 |
| 20260503200250 | 16 | 194 | 0.0 | 1.6 | 0.00 | 0.00 | 0.00 | 69 | 1013.2 |
| 20260503195253 | 15 | 191 | 0.0 | 9.7 | 0.00 | 0.00 | 0.00 | 70 | 1013.2 |
| 20260503194250 | 15 | 70 | 0.0 | 6.4 | 0.00 | 0.00 | 0.00 | 70 | 1013.3 |
| 20260503193254 | 15 | 40 | 0.0 | 6.4 | 0.00 | 0.00 | 0.00 | 68 | 1013.2 |
| 20260503192250 | 15 | 56 | 3.2 | 14.5 | 0.00 | 0.00 | 0.00 | 67 | 1013.3 |
| 20260503191250 | 16 | 164 | 0.0 | 0.0 | 0.00 | 0.00 | 0.00 | 70 | 1013.2 |
| 20260503190250 | 16 | 120 | 1.6 | 1.6 | 0.00 | 0.00 | 0.00 | 69 | 1013.2 |
| 20260503185251 | 16 | 145 | 0.0 | 4.8 | 0.00 | 0.00 | 0.00 | 67 | 1013.2 |
| 20260503184250 | 16 | 96 | 0.0 | 1.6 | 0.00 | 0.00 | 0.00 | 69 | 1013.1 |
| 20260503183250 | 16 | 57 | 0.0 | 4.8 | 0.00 | 0.00 | 0.00 | 69 | 1013.1 |
| 20260503182250 | 15 | 196 | 0.0 | 0.0 | 0.00 | 0.00 | 0.00 | 74 | 1013.1 |
| 20260503181251 | 15 | 196 | 0.0 | 0.0 | 0.00 | 0.00 | 0.00 | 74 | 1013.1 |
| 20260503180250 | 15 | 196 | 0.0 | 1.6 | 0.00 | 0.00 | 0.00 | 73 | 1013.1 |
| 20260503175250 | 15 | 179 | 0.0 | 3.2 | 0.00 | 0.00 | 0.00 | 73 | 1013.2 |
| 20260503174253 | 14 | 73 | 0.0 | 4.8 | 0.00 | 0.00 | 0.00 | 75 | 1013.3 |
| 20260503173250 | 14 | 150 | 0.0 | 1.6 | 0.00 | 0.00 | 0.00 | 79 | 1013.2 |
| 20260503172250 | 13 | 140 | 0.0 | 0.0 | 0.00 | 0.00 | 0.00 | 82 | 1013.2 |
| 20260503171253 | 13 | 140 | 0.0 | 1.6 | 0.00 | 0.00 | 0.00 | 82 | 1013.3 |
| 20260503170250 | 13 | 135 | 0.0 | 1.6 | 0.00 | 0.00 | 0.00 | 84 | 1013.3 |
| 20260503150250 | 11 | 216 | 0.0 | 1.6 | 0.00 | 0.00 | 0.00 | 91 | 1012.9 |
| 20260503140250 | 11 | 316 | 0.0 | 0.0 | 0.00 | 0.00 | 0.00 | 92 | 1012.0 |
| 20260503131251 | 11 | 316 | 0.0 | 0.0 | 0.00 | 0.00 | 0.00 | 91 | 1011.6 |
| 20260503130250 | 11 | 316 | 0.0 | 0.0 | 0.00 | 0.00 | 0.00 | 91 | 1011.6 |
| 20260503110251 | 11 | 315 | 0.0 | 0.0 | 0.00 | 0.00 | 0.00 | 89 | 1011.4 |
| 20260503100254 | 11 | 315 | 0.0 | 0.0 | 0.00 | 0.00 | 0.00 | 89 | 1011.3 |
| 20260503090250 | 12 | 315 | 0.0 | 0.0 | 0.00 | 0.00 | 0.00 | 87 | 1011.8 |
| 20260503081250 | 12 | 315 | 0.0 | 0.0 | 0.00 | 0.00 | 0.00 | 86 | 1012.3 |
| 20260503080253 | 12 | 315 | 0.0 | 0.0 | 0.00 | 0.00 | 0.00 | 86 | 1012.3 |
| 20260503072250 | 12 | 315 | 0.0 | 0.0 | 0.00 | 0.00 | 0.00 | 86 | 1012.2 |
| 20260503071250 | 12 | 315 | 0.0 | 0.0 | 0.00 | 0.00 | 0.00 | 86 | 1012.2 |
| 20260503070253 | 12 | 315 | 0.0 | 0.0 | 0.00 | 0.00 | 0.00 | 86 | 1012.3 |
| 20260503060250 | 12 | 315 | 0.0 | 0.0 | 0.00 | 0.00 | 0.00 | 85 | 1012.3 |
| 20260503054250 | 12 | 315 | 0.0 | 0.0 | 0.00 | 0.00 | 0.00 | 85 | 1012.6 |
| 20260503053253 | 12 | 315 | 0.0 | 0.0 | 0.00 | 0.00 | 0.00 | 85 | 1012.6 |
| 20260503052250 | 12 | 315 | 0.0 | 0.0 | 0.00 | 0.00 | 0.00 | 85 | 1012.7 |
| 20260503051250 | 12 | 315 | 0.0 | 0.0 | 0.00 | 0.00 | 0.00 | 84 | 1012.7 |
| 20260503050250 | 12 | 315 | 0.0 | 0.0 | 0.00 | 0.00 | 0.00 | 84 | 1012.7 |
| 20260503045251 | 12 | 315 | 0.0 | 0.0 | 0.00 | 0.00 | 0.00 | 84 | 1012.7 |
| 20260503044250 | 12 | 315 | 0.0 | 1.6 | 0.00 | 0.00 | 0.00 | 84 | 1012.5 |
| 20260503043250 | 12 | 315 | 0.0 | 0.0 | 0.00 | 0.00 | 0.00 | 84 | 1012.4 |
| 20260503042250 | 12 | 315 | 0.0 | 0.0 | 0.00 | 0.00 | 0.00 | 83 | 1012.4 |
| 20260503041250 | 12 | 315 | 0.0 | 0.0 | 0.00 | 0.00 | 0.00 | 84 | 1012.2 |
| 20260503040251 | 13 | 315 | 0.0 | 0.0 | 0.00 | 0.00 | 0.00 | 84 | 1012.2 |
| 20260503035250 | 13 | 315 | 0.0 | 0.0 | 0.00 | 0.00 | 0.00 | 84 | 1012.0 |
| 20260503034254 | 13 | 315 | 0.0 | 0.0 | 0.00 | 0.00 | 0.00 | 84 | 1011.9 |
| 20260503033253 | 13 | 315 | 0.0 | 0.0 | 0.00 | 0.00 | 0.00 | 84 | 1011.7 |
| 20260503032253 | 13 | 315 | 0.0 | 0.0 | 0.00 | 0.00 | 0.00 | 84 | 1011.5 |
| 20260503031250 | 13 | 315 | 0.0 | 0.0 | 0.00 | 0.00 | 0.00 | 84 | 1011.4 |
| 20260503030250 | 13 | 315 | 0.0 | 0.0 | 0.00 | 0.00 | 0.00 | 83 | 1011.4 |
| 20260503025251 | 13 | 315 | 0.0 | 0.0 | 0.00 | 0.00 | 0.00 | 83 | 1011.3 |
| 20260503024250 | 13 | 315 | 0.0 | 0.0 | 0.00 | 0.00 | 0.00 | 82 | 1011.2 |
| 20260503023250 | 14 | 315 | 0.0 | 0.0 | 0.00 | 0.00 | 0.00 | 82 | 1011.1 |
| 20260503022252 | 14 | 315 | 0.0 | 0.0 | 0.00 | 0.00 | 0.00 | 81 | 1011.1 |
| 20260503021250 | 15 | 315 | 0.0 | 0.0 | 0.00 | 0.00 | 0.00 | 81 | 1011.0 |
| 20260503020250 | 15 | 315 | 0.0 | 0.0 | 0.00 | 0.00 | 0.00 | 81 | 1011.1 |
| 20260503015250 | 15 | 315 | 0.0 | 0.0 | 0.00 | 0.00 | 0.00 | 80 | 1011.1 |
| 20260503014250 | 15 | 315 | 0.0 | 0.0 | 0.00 | 0.00 | 0.00 | 79 | 1011.1 |
| 20260503013250 | 16 | 315 | 0.0 | 0.0 | 0.00 | 0.00 | 0.00 | 79 | 1011.0 |
| 20260503012251 | 16 | 315 | 0.0 | 1.6 | 0.00 | 0.00 | 0.00 | 78 | 1011.1 |
| 20260503011250 | 16 | 315 | 0.0 | 0.0 | 0.00 | 0.00 | 0.00 | 78 | 1011.0 |
| 20260503010250 | 16 | 315 | 0.0 | 0.0 | 0.00 | 0.00 | 0.00 | 77 | 1011.0 |
| 20260503005250 | 16 | 315 | 0.0 | 1.6 | 0.00 | 0.00 | 0.00 | 78 | 1011.0 |
| 20260503004253 | 16 | 315 | 0.0 | 3.2 | 0.00 | 0.00 | 0.00 | 76 | 1011.0 |
| 20260503003250 | 17 | 271 | 0.0 | 0.0 | 0.00 | 0.00 | 0.00 | 75 | 1010.9 |
| 20260503002250 | 17 | 133 | 0.0 | 1.6 | 0.00 | 0.00 | 0.00 | 74 | 1011.0 |
| 20260503001250 | 17 | 350 | 0.0 | 1.6 | 0.00 | 0.00 | 0.00 | 73 | 1010.9 |
| 20260503000251 | 18 | 273 | 0.0 | 1.6 | 0.00 | 0.00 | 0.00 | 72 | 1010.9 |
| 20260502235250 | 18 | 248 | 0.0 | 1.6 | 0.00 | 0.00 | 0.00 | 71 | 1010.8 |
| 20260502234253 | 18 | 216 | 0.0 | 1.6 | 0.00 | 0.00 | 0.00 | 71 | 1010.8 |
| 20260502233254 | 18 | 166 | 0.0 | 4.8 | 0.00 | 0.00 | 0.00 | 70 | 1010.8 |
| 20260502232250 | 19 | 200 | 0.0 | 6.4 | 0.00 | 0.00 | 0.00 | 68 | 1011.0 |
| 20260502231251 | 20 | 305 | 0.0 | 8.0 | 0.00 | 0.00 | 0.00 | 68 | 1011.0 |
| 20260502230250 | 20 | 207 | 0.0 | 4.8 | 0.00 | 0.00 | 0.00 | 66 | 1011.2 |
| 20260502225251 | 21 | 140 | 0.0 | 6.4 | 0.00 | 0.00 | 0.00 | 65 | 1011.3 |
| 20260502224251 | 21 | 173 | 6.4 | 6.4 | 0.00 | 0.00 | 0.00 | 64 | 1011.5 |
| 20260502223253 | 20 | 158 | 0.0 | 8.0 | 0.00 | 0.00 | 0.00 | 65 | 1011.7 |
| 20260502222250 | 21 | 162 | 0.0 | 9.7 | 0.00 | 0.00 | 0.00 | 63 | 1011.9 |
| 20260502221254 | 21 | 353 | 0.0 | 1.6 | 0.00 | 0.00 | 0.00 | 64 | 1012.0 |
| 20260502220253 | 21 | 44 | 0.0 | 1.6 | 0.00 | 0.00 | 0.00 | 66 | 1012.2 |
| 20260502215250 | 20 | 157 | 0.0 | 9.7 | 0.00 | 0.00 | 0.00 | 67 | 1012.4 |
| 20260502214250 | 20 | 62 | 0.0 | 4.8 | 0.00 | 0.00 | 0.00 | 64 | 1012.6 |
| 20260502213250 | 20 | 140 | 0.0 | 1.6 | 0.00 | 0.00 | 0.00 | 67 | 1012.7 |
| 20260502212250 | 19 | 193 | 0.0 | 3.2 | 0.00 | 0.00 | 0.00 | 68 | 1012.8 |